This is the latest recevied weather packets stored in our database for station/object 9W2JEK-2. If no packets are shown the sender has not sent any weather packets the latest 10 day(s).
| Time | Temp. | Humidity | Pressure | Rain* | Wind** | Luminosity | Snow |
|---|---|---|---|---|---|---|---|
| 1787454864 | 32.78° C | 56% | 1010.5 hPa | - | - | - | - |
| 1787454064 | 32.78° C | 58% | 1010.5 hPa | - | - | - | - |
| 1787453055 | 32.78° C | 57% | 1010.7 hPa | - | - | - | - |
| 1787452155 | 32.78° C | 58% | 1010.7 hPa | - | - | - | - |
| 1787451255 | 32.78° C | 59% | 1010.5 hPa | - | - | - | - |
| 1787450360 | 32.78° C | 58% | 1010.7 hPa | - | - | - | - |
| 1787449538 | 32.22° C | 60% | 1010.7 hPa | - | - | - | - |
| 1787448560 | 32.22° C | 59% | 1010.9 hPa | - | - | - | - |
| 1787447660 | 32.22° C | 59% | 1010.8 hPa | - | - | - | - |
| 1787446760 | 32.22° C | 58% | 1010.7 hPa | - | - | - | - |
| 1787445860 | 32.22° C | 58% | 1010.7 hPa | - | - | - | - |
| 1787444960 | 31.67° C | 60% | 1010.3 hPa | - | - | - | - |
| 1787444059 | 31.11° C | 64% | 1010 hPa | - | - | - | - |
| 1787443159 | 31.11° C | 62% | 1009.7 hPa | - | - | - | - |
| 1787442261 | 31.11° C | 62% | 1009.4 hPa | - | - | - | - |
| 1787441376 | 31.11° C | 61% | 1009.1 hPa | - | - | - | - |
| 1787441225 | 31.11° C | 60% | 1008.9 hPa | - | - | - | - |
| 1787439573 | 32.22° C | 56% | 1008.5 hPa | - | - | - | - |
| 1787438659 | 31.67° C | 57% | 1008.4 hPa | - | - | - | - |
| 1787437759 | 31.11° C | 58% | 1008.5 hPa | - | - | - | - |
| 1787436860 | 31.11° C | 58% | 1008.4 hPa | - | - | - | - |
| 1787435959 | 31.67° C | 57% | 1008.3 hPa | - | - | - | - |
| 1787435353 | 31.67° C | 57% | 1008.3 hPa | - | - | - | - |
| 1787434159 | 31.67° C | 57% | 1008.2 hPa | - | - | - | - |
| 1787433259 | 31.11° C | 57% | 1008.2 hPa | - | - | - | - |
* Rain since midnight (hover to see other rain measurements)
** Current wind speed in m/s (hover to see current wind gust speed)